YAOGAN 9A

Satellite information

Favourite Embed

Satellite Type and Status

PAYLOADIN ORBIT

Key statistics

Satellite YAOGAN 9A at a glance.

Uptime

5604

Days in orbit

Revolutions

≈ 13.5

Per day

Orbit

LEO

Low Earth Orbit

Inclination

63.4

Latest

Satellite identification and parameters

Extended collection of information and parameters for YAOGAN 9A.

Object identification

Identified? True

Debris? False

Object name: YAOGAN 9A

International designator: 2010-009A

Object number (NORAD): 36413

Object ID (CCSDS): 36413

Country: PEOPLES REPUBLIC OF CHINA (PRC)

Current information (Y/N): Y

RCS size: LARGE

Orbital parameters

Period: 107.015 minutes

Inclination: 63.3673 deg

SMA: 7466.627 km

Apoapsis: 1467.907 km

Periapsis: 709.078 km

RAAN: 169.1172 deg

Eccentricy: 0.0508147

Argument of periapsis: 19.0948 deg

Mean anomaly: 342.8383 deg

Mean motion: 13.45600182 rev/day

Mean motion (dot): 0.00000032 rev/day2

B* drag term: 0.000094696 1/REarth

Two-line elements (TLE)

Creation date: July 8, 2025, 2:27 a.m.

Reference frame: TEME

Reference center: EARTH

Epoch: July 7, 2025, 6:11 p.m. UTC

TLE line 0: 0 YAOGAN 9A

TLE line 1: 1 36413U 10009A 25188.75796219 .00000032 00000-0 94696-4 0 9990

TLE line 2: 2 36413 63.3673 169.1172 0508147 19.0948 342.8383 13.45600182753624

Live tracking on map

Real-time ground track for satellite YAOGAN 9A.

In-orbit conjunctions

There are no conjunctions computed for YAOGAN 9A, at the moment. Check back to stay up to date, as we update our databases every day.

Go to all conjunctions

Associated space launch

YAOGAN 9A was lifted into orbit during the mission ‘Long March 4C | Yaogan-9’, on board a Long March 4C space rocket.

The launch took place on March 5, 2010, 4:55 a.m. from Launch Area 4 (SLS-2 / 603).

For more information about the launch, click the button.

Launch to space Long March 4C | Yaogan-9
Long March 4C | Yaogan-9

Agency: N/A

Status: Launch Successful

Launch date: March 5, 2010, 4:55 a.m. UTC

Rocket: Long March 4C

Launch pad: Launch Area 4 (SLS-2 / 603)

Location: Jiuquan Satellite Launch Center, People's Republic of China

...

Latest news about this satellite

There are no fresh news available about this satellite. Check back as we update our databases every day.


Newsletter sign-up

Weekly statistics, charts and insights to help you stay on top of the space industry.